Time,TemperatureF,DewpointF,PressureIn,WindDirection,WindDirectionDegrees,WindSpeedMPH,WindSpeedGustMPH,Humidity,HourlyPrecipIn,Conditions,Clouds,dailyrainin,SoftwareType,DateUTC
2013-05-03 00:02:00,74.5,71.0,29.88,South,188,0.0,3.0,87,0.00,,,0.00,weatherlink.com 1.10,2013-05-03 06:02:00,
2013-05-03 00:17:00,74.2,70.0,29.88,SW,236,0.0,1.0,87,0.00,,,0.00,weatherlink.com 1.10,2013-05-03 06:17:00,
2013-05-03 00:32:00,74.2,70.0,29.89,SSW,207,0.0,1.0,87,0.00,,,0.00,weatherlink.com 1.10,2013-05-03 06:32:00,
2013-05-03 00:47:00,73.8,70.0,29.89,SE,127,0.0,1.0,87,0.00,,,0.00,weatherlink.com 1.10,2013-05-03 06:47:00,
2013-05-03 01:02:00,73.7,70.0,29.89,ESE,105,0.0,1.0,87,0.00,,,0.00,weatherlink.com 1.10,2013-05-03 07:02:00,
2013-05-03 01:17:00,72.9,69.0,29.88,ESE,115,1.0,4.0,87,0.00,,,0.00,weatherlink.com 1.10,2013-05-03 07:17:00,
2013-05-03 01:32:00,72.8,69.0,29.88,ESE,117,0.0,3.0,88,0.00,,,0.00,weatherlink.com 1.10,2013-05-03 07:32:00,
2013-05-03 01:47:00,73.2,70.0,29.86,South,191,4.0,7.0,89,0.00,,,0.00,weatherlink.com 1.10,2013-05-03 07:47:00,
2013-05-03 02:02:00,73.3,70.0,29.86,SE,143,3.0,6.0,89,0.00,,,0.00,weatherlink.com 1.10,2013-05-03 08:02:00,
2013-05-03 02:17:00,73.1,70.0,29.88,ESE,110,0.0,4.0,89,0.00,,,0.00,weatherlink.com 1.10,2013-05-03 08:17:00,
2013-05-03 02:32:00,72.5,69.0,29.88,East,89,1.0,4.0,89,0.00,,,0.00,weatherlink.com 1.10,2013-05-03 08:32:00,
2013-05-03 02:47:00,72.5,70.0,29.87,ESE,120,0.0,3.0,90,0.00,,,0.00,weatherlink.com 1.10,2013-05-03 08:47:00,
2013-05-03 03:02:00,72.2,69.0,29.87,East,87,2.0,4.0,89,0.00,,,0.00,weatherlink.com 1.10,2013-05-03 09:02:00,
2013-05-03 03:17:00,71.9,69.0,29.87,ESE,103,2.0,4.0,89,0.00,,,0.00,weatherlink.com 1.10,2013-05-03 09:17:00,
2013-05-03 03:32:00,71.7,69.0,29.87,ESE,112,1.0,3.0,90,0.00,,,0.00,weatherlink.com 1.10,2013-05-03 09:32:00,
2013-05-03 03:47:00,71.5,69.0,29.87,ESE,102,2.0,5.0,90,0.00,,,0.00,weatherlink.com 1.10,2013-05-03 09:47:00,
2013-05-03 04:02:00,71.3,68.0,29.88,ESE,115,3.0,5.0,90,0.00,,,0.00,weatherlink.com 1.10,2013-05-03 10:02:00,
2013-05-03 04:17:00,71.0,68.0,29.88,SE,125,2.0,5.0,90,0.00,,,0.00,weatherlink.com 1.10,2013-05-03 10:17:00,
2013-05-03 04:32:00,71.1,68.0,29.88,SSE,162,1.0,4.0,91,0.00,,,0.00,weatherlink.com 1.10,2013-05-03 10:32:00,
2013-05-03 04:47:00,71.1,68.0,29.88,ESE,110,3.0,4.0,91,0.00,,,0.00,weatherlink.com 1.10,2013-05-03 10:47:00,
2013-05-03 05:02:00,71.0,68.0,29.88,ESE,107,2.0,5.0,91,0.00,,,0.00,weatherlink.com 1.10,2013-05-03 11:02:00,
2013-05-03 05:18:00,70.9,68.0,29.88,East,80,3.0,5.0,91,0.00,,,0.00,weatherlink.com 1.10,2013-05-03 11:18:00,
2013-05-03 05:32:00,71.0,68.0,29.88,ESE,119,3.0,4.0,91,0.00,,,0.00,weatherlink.com 1.10,2013-05-03 11:32:00,
2013-05-03 05:47:00,71.1,68.0,29.88,East,101,1.0,6.0,91,0.00,,,0.00,weatherlink.com 1.10,2013-05-03 11:47:00,
2013-05-03 06:02:00,71.1,68.0,29.88,ESE,109,0.0,4.0,91,0.00,,,0.00,weatherlink.com 1.10,2013-05-03 12:02:00,
2013-05-03 06:17:00,71.1,69.0,29.88,East,84,2.0,5.0,92,0.00,,,0.00,weatherlink.com 1.10,2013-05-03 12:17:00,
2013-05-03 06:32:00,71.2,69.0,29.88,ESE,112,0.0,5.0,92,0.00,,,0.00,weatherlink.com 1.10,2013-05-03 12:32:00,
2013-05-03 06:47:00,71.5,69.0,29.89,ESE,110,0.0,4.0,92,0.00,,,0.00,weatherlink.com 1.10,2013-05-03 12:47:00,
2013-05-03 07:02:00,71.6,69.0,29.89,SE,124,0.0,2.0,92,0.00,,,0.00,weatherlink.com 1.10,2013-05-03 13:02:00,
2013-05-03 07:17:00,71.7,70.0,29.89,East,91,3.0,5.0,93,0.00,,,0.00,weatherlink.com 1.10,2013-05-03 13:17:00,
2013-05-03 07:32:00,71.9,70.0,29.89,ESE,108,0.0,3.0,93,0.00,,,0.00,weatherlink.com 1.10,2013-05-03 13:32:00,
2013-05-03 07:47:00,72.3,70.0,29.89,ENE,74,0.0,3.0,92,0.00,,,0.00,weatherlink.com 1.10,2013-05-03 13:47:00,
2013-05-03 08:02:00,73.2,71.0,29.89,SE,134,0.0,2.0,92,0.00,,,0.00,weatherlink.com 1.10,2013-05-03 14:02:00,
2013-05-03 08:17:00,74.0,71.0,29.90,ESE,115,2.0,5.0,91,0.00,,,0.00,weatherlink.com 1.10,2013-05-03 14:17:00,
2013-05-03 08:33:00,74.6,72.0,29.90,ESE,120,3.0,5.0,90,0.00,,,0.00,weatherlink.com 1.10,2013-05-03 14:33:00,
2013-05-03 08:48:00,74.6,71.0,29.90,ESE,105,5.0,6.0,89,0.00,,,0.00,weatherlink.com 1.10,2013-05-03 14:48:00,
2013-05-03 09:03:00,74.8,71.0,29.90,ESE,105,4.0,7.0,88,0.00,,,0.00,weatherlink.com 1.10,2013-05-03 15:03:00,
2013-05-03 09:18:00,74.9,71.0,29.90,SE,132,1.0,8.0,88,0.00,,,0.00,weatherlink.com 1.10,2013-05-03 15:18:00,
2013-05-03 09:33:00,75.2,71.0,29.91,SE,125,3.0,10.0,87,0.00,,,0.00,weatherlink.com 1.10,2013-05-03 15:33:00,
2013-05-03 09:48:00,75.4,71.0,29.91,ESE,105,10.0,10.0,85,0.00,,,0.00,weatherlink.com 1.10,2013-05-03 15:48:00,
2013-05-03 10:03:00,76.0,71.0,29.91,SE,133,6.0,11.0,85,0.00,,,0.00,weatherlink.com 1.10,2013-05-03 16:03:00,
2013-05-03 10:18:00,76.7,72.0,29.90,SE,141,0.0,10.0,85,0.00,,,0.00,weatherlink.com 1.10,2013-05-03 16:18:00,
2013-05-03 10:33:00,76.6,72.0,29.90,ESE,115,5.0,10.0,84,0.00,,,0.00,weatherlink.com 1.10,2013-05-03 16:33:00,
2013-05-03 10:48:00,76.9,72.0,29.90,East,101,2.0,7.0,84,0.00,,,0.00,weatherlink.com 1.10,2013-05-03 16:48:00,
2013-05-03 11:03:00,77.6,73.0,29.90,ESE,115,5.0,9.0,84,0.00,,,0.00,weatherlink.com 1.10,2013-05-03 17:03:00,
2013-05-03 11:18:00,77.7,73.0,29.89,ESE,118,6.0,8.0,84,0.00,,,0.00,weatherlink.com 1.10,2013-05-03 17:18:00,
2013-05-03 11:33:00,77.5,72.0,29.89,SSW,210,8.0,10.0,83,0.00,,,0.00,weatherlink.com 1.10,2013-05-03 17:33:00,
2013-05-03 12:03:00,77.5,72.0,29.89,SSE,152,6.0,9.0,84,0.00,,,0.00,weatherlink.com 1.10,2013-05-03 18:03:00,
2013-05-03 12:18:00,77.6,72.0,29.88,South,190,6.0,9.0,83,0.00,,,0.00,weatherlink.com 1.10,2013-05-03 18:18:00,
2013-05-03 12:33:00,77.8,72.0,29.87,SSE,165,7.0,9.0,82,0.00,,,0.00,weatherlink.com 1.10,2013-05-03 18:33:00,
2013-05-03 12:48:00,77.4,72.0,29.87,SSW,207,7.0,10.0,82,0.00,,,0.00,weatherlink.com 1.10,2013-05-03 18:48:00,
2013-05-03 13:03:00,77.4,72.0,29.86,SW,225,6.0,9.0,83,0.00,,,0.00,weatherlink.com 1.10,2013-05-03 19:03:00,
2013-05-03 13:18:00,77.5,72.0,29.86,WSW,246,6.0,10.0,82,0.00,,,0.00,weatherlink.com 1.10,2013-05-03 19:18:00,
2013-05-03 13:33:00,77.8,72.0,29.86,WNW,293,6.0,11.0,81,0.00,,,0.00,weatherlink.com 1.10,2013-05-03 19:33:00,
2013-05-03 13:48:00,77.2,71.0,29.85,SE,131,4.0,11.0,82,0.00,,,0.00,weatherlink.com 1.10,2013-05-03 19:48:00,
2013-05-03 14:03:00,76.8,71.0,29.85,SW,214,4.0,12.0,82,0.00,,,0.00,weatherlink.com 1.10,2013-05-03 20:03:00,
2013-05-03 14:18:00,76.8,70.0,29.84,South,186,7.0,12.0,80,0.00,,,0.00,weatherlink.com 1.10,2013-05-03 20:18:00,
2013-05-03 14:33:00,76.6,70.0,29.84,WSW,240,12.0,13.0,79,0.00,,,0.00,weatherlink.com 1.10,2013-05-03 20:33:00,
2013-05-03 14:48:00,76.1,70.0,29.84,WSW,245,12.0,13.0,80,0.00,,,0.00,weatherlink.com 1.10,2013-05-03 20:48:00,
2013-05-03 15:03:00,76.1,70.0,29.83,WSW,243,12.0,13.0,81,0.00,,,0.00,weatherlink.com 1.10,2013-05-03 21:03:00,
2013-05-03 15:18:00,76.2,70.0,29.82,WSW,243,13.0,14.0,82,0.00,,,0.00,weatherlink.com 1.10,2013-05-03 21:18:00,
2013-05-03 15:33:00,75.9,70.0,29.82,WSW,249,13.0,14.0,81,0.00,,,0.00,weatherlink.com 1.10,2013-05-03 21:33:00,
2013-05-03 15:48:00,75.9,70.0,29.82,WSW,245,11.0,13.0,82,0.00,,,0.00,weatherlink.com 1.10,2013-05-03 21:48:00,
2013-05-03 16:03:00,75.5,70.0,29.82,WSW,243,13.0,13.0,82,0.00,,,0.00,weatherlink.com 1.10,2013-05-03 22:03:00,
2013-05-03 16:18:00,75.6,70.0,29.82,WSW,243,12.0,12.0,82,0.00,,,0.00,weatherlink.com 1.10,2013-05-03 22:18:00,
2013-05-03 16:33:00,75.5,70.0,29.81,WSW,242,13.0,13.0,83,0.00,,,0.00,weatherlink.com 1.10,2013-05-03 22:33:00,
2013-05-03 16:48:00,75.7,70.0,29.82,South,188,6.0,14.0,83,0.00,,,0.00,weatherlink.com 1.10,2013-05-03 22:48:00,
2013-05-03 17:03:00,75.9,69.0,29.82,WSW,240,9.0,12.0,79,0.00,,,0.00,weatherlink.com 1.10,2013-05-03 23:03:00,
2013-05-03 17:18:00,75.7,69.0,29.82,WSW,240,10.0,12.0,80,0.00,,,0.00,weatherlink.com 1.10,2013-05-03 23:18:00,
2013-05-03 17:33:00,75.7,70.0,29.82,SW,223,8.0,11.0,81,0.00,,,0.00,weatherlink.com 1.10,2013-05-03 23:33:00,
2013-05-03 17:48:00,75.3,69.0,29.82,WSW,238,6.0,8.0,80,0.00,,,0.00,weatherlink.com 1.10,2013-05-03 23:48:00,
2013-05-03 18:03:00,75.7,70.0,29.82,SSW,194,3.0,8.0,81,0.00,,,0.00,weatherlink.com 1.10,2013-05-04 00:03:00,
2013-05-03 18:18:00,75.6,70.0,29.82,WSW,242,7.0,7.0,82,0.00,,,0.00,weatherlink.com 1.10,2013-05-04 00:18:00,
2013-05-03 18:33:00,75.4,70.0,29.83,West,260,8.0,10.0,83,0.00,,,0.00,weatherlink.com 1.10,2013-05-04 00:33:00,
2013-05-03 18:48:00,75.1,70.0,29.84,WSW,238,6.0,8.0,83,0.00,,,0.00,weatherlink.com 1.10,2013-05-04 00:48:00,
2013-05-03 19:03:00,75.1,70.0,29.85,WSW,240,7.0,8.0,85,0.00,,,0.00,weatherlink.com 1.10,2013-05-04 01:03:00,
2013-05-03 19:18:00,75.0,70.0,29.86,WSW,252,6.0,10.0,85,0.00,,,0.00,weatherlink.com 1.10,2013-05-04 01:18:00,
2013-05-03 19:34:00,74.9,70.0,29.86,WSW,258,5.0,9.0,85,0.00,,,0.00,weatherlink.com 1.10,2013-05-04 01:34:00,
2013-05-03 19:49:00,74.8,70.0,29.86,WSW,238,6.0,7.0,85,0.00,,,0.00,weatherlink.com 1.10,2013-05-04 01:49:00,
2013-05-03 20:04:00,74.8,70.0,29.87,SW,222,5.0,6.0,85,0.00,,,0.00,weatherlink.com 1.10,2013-05-04 02:04:00,
2013-05-03 20:19:00,74.6,70.0,29.87,SW,229,4.0,5.0,86,0.00,,,0.00,weatherlink.com 1.10,2013-05-04 02:19:00,
2013-05-03 20:34:00,74.5,70.0,29.88,WSW,238,4.0,6.0,86,0.00,,,0.00,weatherlink.com 1.10,2013-05-04 02:34:00,
2013-05-03 20:49:00,74.6,71.0,29.88,South,170,5.0,5.0,87,0.00,,,0.00,weatherlink.com 1.10,2013-05-04 02:49:00,
2013-05-03 21:04:00,74.5,71.0,29.89,ESE,120,3.0,6.0,87,0.00,,,0.00,weatherlink.com 1.10,2013-05-04 03:04:00,
2013-05-03 21:19:00,74.4,70.0,29.90,WSW,239,4.0,7.0,87,0.00,,,0.00,weatherlink.com 1.10,2013-05-04 03:19:00,
2013-05-03 21:34:00,74.1,70.0,29.90,ESE,108,0.0,5.0,86,0.00,,,0.00,weatherlink.com 1.10,2013-05-04 03:34:00,
2013-05-03 21:49:00,74.0,69.0,29.91,SSW,195,2.0,6.0,84,0.00,,,0.00,weatherlink.com 1.10,2013-05-04 03:49:00,
2013-05-03 22:04:00,74.2,68.0,29.91,WSW,240,4.0,5.0,81,0.00,,,0.00,weatherlink.com 1.10,2013-05-04 04:04:00,
2013-05-03 22:19:00,74.3,67.0,29.92,South,180,3.0,5.0,79,0.00,,,0.00,weatherlink.com 1.10,2013-05-04 04:19:00,
2013-05-03 22:34:00,74.0,66.0,29.92,SSW,210,0.0,4.0,77,0.00,,,0.00,weatherlink.com 1.10,2013-05-04 04:34:00,
2013-05-03 22:49:00,74.1,67.0,29.92,WSW,240,0.0,2.0,78,0.00,,,0.00,weatherlink.com 1.10,2013-05-04 04:49:00,
2013-05-03 23:04:00,73.9,66.0,29.92,WSW,246,0.0,1.0,77,0.00,,,0.00,weatherlink.com 1.10,2013-05-04 05:04:00,
2013-05-03 23:19:00,74.0,67.0,29.92,SE,139,0.0,0.0,78,0.00,,,0.00,weatherlink.com 1.10,2013-05-04 05:19:00,
2013-05-03 23:34:00,73.7,66.0,29.92,SSW,205,0.0,0.0,78,0.00,,,0.00,weatherlink.com 1.10,2013-05-04 05:34:00,
2013-05-03 23:49:00,73.6,66.0,29.92,SE,129,0.0,0.0,78,0.00,,,0.00,weatherlink.com 1.10,2013-05-04 05:49:00,